[[{"header":{"parameterUnit":"m.s-1","parameterCategory":1,"la1":30.2991,"la2":30.254,"lo1":-89.0895,"lo2":-89.0444,"dy":0.0017,"dx":0.0017,"nx":28,"ny":28,"refTime":"2023-07-19T21:00:00:Z","depth":0,"parameterNumber":2,"parameterNumberName":"U-component_of_WINDS"},"data":[0,0,0,0,0,0,0,0,0,0,0,0,0,0,0,0,0,0,0,0,0,0,0,0,0,0,0,0,0,0,0,0,0,0,0,0,0,0,0,0,0,0,0,0,0,0,0,0,0,0,0,0,0,0,0,0,0,0,-0.3378,-0.3377,0,-0.3302,-0.3301,-0.33,-0.3259,-0.3259,-0.3259,-0.3259,-0.3182,-0.318,-0.3178,0,0,0,0,0,0,0,0,0,0,0,0,0,-0.3488,-0.3486,-0.3378,-0.3377,-0.3376,-0.3302,-0.3301,-0.33,-0.3259,-0.3259,-0.3259,-0.3259,-0.3182,-0.318,-0.3178,0,0,0,0,0,0,0,0,0,0,0,0,0,-0.3429,-0.3485,-0.3378,-0.3346,-0.3343,-0.3302,-0.3301,-0.33,-0.3259,-0.3259,-0.3259,-0.3259,-0.3183,-0.318,-0.3177,-0.3162,0,0,-0.3168,-0.3167,0,0,0,0,0,0,0,0,-0.3432,-0.3425,-0.3352,-0.3349,-0.3344,-0.329,-0.3311,-0.3254,-0.3259,-0.3291,-0.3259,-0.3259,-0.3218,-0.3212,-0.3198,-0.3158,-0.3155,-0.3168,-0.3166,-0.3165,-0.3164,0,0,0,0,0,0,0,-0.3436,-0.3428,-0.3348,-0.3351,-0.3346,-0.3337,-0.3328,-0.33,-0.3256,-0.3288,-0.3285,-0.3277,-0.3216,-0.3201,-0.3196,-0.3154,-0.3168,-0.3165,-0.3164,-0.3162,-0.3099,-0.3099,0,0,0,0,0,0,-0.3445,-0.3431,-0.335,-0.3345,-0.3389,-0.3335,-0.3325,-0.3308,-0.3256,-0.3248,-0.3277,-0.3275,-0.3206,-0.3199,-0.3193,-0.3172,-0.3165,-0.3162,-0.3161,-0.3098,-0.3099,-0.3099,0,0,0,0,0,0,-0.3448,-0.3438,-0.3353,-0.3388,-0.3376,-0.3333,-0.3314,-0.3306,-0.3291,-0.3248,-0.324,-0.327,-0.3206,-0.3197,-0.317,-0.3169,-0.3161,-0.3158,-0.3098,-0.3099,-0.3099,-0.313,0,0,0,0,0,0,-0.3451,-0.344,-0.3433,-0.3388,-0.3374,-0.3331,-0.3313,-0.3305,-0.3286,-0.3283,-0.3239,-0.3232,-0.3205,-0.3175,-0.3167,-0.3165,-0.3156,-0.3098,-0.3098,-0.3099,-0.3129,-0.3131,-0.3133,0,0,0,0,0,-0.3455,-0.3445,-0.3433,-0.3423,-0.3365,-0.3331,-0.3324,-0.3293,-0.3287,-0.328,-0.3252,-0.3233,-0.317,-0.3172,-0.3164,-0.316,-0.3098,-0.3098,-0.3099,-0.3128,-0.3131,-0.3133,0,0,0,0,0,0,-0.3491,-0.3438,-0.3424,-0.3399,-0.337,-0.3325,-0.3315,-0.3297,-0.3269,-0.3268,-0.3231,-0.3221,-0.3198,-0.3176,-0.3179,-0.3143,-0.3132,-0.3131,-0.3158,-0.316,-0.3162,-0.3168,-0.3153,0,0,0,0,0,-0.3496,-0.3473,-0.3428,-0.341,-0.3396,-0.3358,-0.3343,-0.3322,-0.329,-0.3277,-0.3247,-0.3218,-0.3191,-0.3174,-0.3148,-0.3126,-0.3116,-0.3119,-0.3121,-0.3123,-0.3122,-0.311,-0.3111,-0.3099,-0.3099,-0.3099,0,0,-0.3507,-0.3475,-0.3462,-0.3417,-0.3392,-0.3369,-0.3348,-0.3325,-0.3307,-0.3274,-0.3246,-0.3224,-0.3188,-0.3164,-0.3151,-0.3145,-0.3123,-0.3124,-0.3125,-0.3123,-0.311,-0.3111,-0.3112,-0.3099,-0.3099,-0.3099,0,0,-0.3513,-0.3487,-0.3469,-0.3445,-0.3407,-0.3382,-0.3378,-0.3335,-0.3318,-0.3291,-0.3265,-0.3244,-0.3199,-0.3175,-0.3157,-0.3155,-0.3137,-0.3147,-0.3159,-0.3147,-0.3148,-0.3148,-0.3148,-0.3148,-0.3147,-0.3147,-0.3147,0,-0.3531,-0.3495,-0.3462,-0.344,-0.3421,-0.339,-0.3372,-0.335,-0.3306,-0.3293,-0.3287,-0.323,-0.3204,-0.3174,-0.3173,-0.316,-0.3154,-0.3152,-0.315,-0.315,-0.315,-0.315,-0.315,-0.3148,-0.3148,-0.3148,-0.3148,0,-0.3518,-0.3494,-0.3484,-0.3442,-0.3422,-0.3402,-0.3367,-0.3351,-0.3332,-0.3308,-0.328,-0.3247,-0.3214,-0.3205,-0.3186,-0.3172,-0.317,-0.3157,-0.3146,-0.3154,-0.3152,-0.3152,-0.315,-0.315,-0.3149,-0.3149,0,0,-0.3545,-0.3486,-0.3483,-0.3464,-0.342,-0.3401,-0.338,-0.3347,-0.3334,-0.3305,-0.3287,-0.325,-0.3238,-0.3217,-0.3196,-0.3185,-0.3186,-0.3174,-0.3172,-0.3177,-0.317,-0.3179,-0.318,-0.3174,-0.3174,-0.3174,-0.3173,0,-0.3546,-0.3507,-0.3477,-0.3449,-0.3427,-0.3397,-0.3379,-0.335,-0.3327,-0.3305,-0.3279,-0.3254,-0.324,-0.3228,-0.3216,-0.3189,-0.3184,-0.3188,-0.3157,-0.3156,-0.3167,-0.3179,-0.3189,-0.3189,-0.3172,-0.3172,-0.3172,0,-0.3542,-0.3513,-0.3483,-0.3443,-0.3432,-0.3416,-0.3384,-0.3363,-0.333,-0.3314,-0.3292,-0.3269,-0.3246,-0.3237,-0.3205,-0.3209,-0.3194,-0.3179,-0.3178,-0.3174,-0.3165,-0.3175,-0.3189,-0.3189,-0.3171,-0.3171,-0.3171,0,-0.3565,-0.352,-0.3496,-0.348,-0.3432,-0.3422,-0.3401,-0.3368,-0.3351,-0.3323,-0.3311,-0.3281,-0.3264,-0.3241,-0.3211,-0.3207,-0.3182,-0.3171,-0.3169,-0.3169,-0.3165,-0.3165,-0.3176,-0.3155,-0.3155,-0.3155,-0.3155,0,-0.3569,-0.3552,-0.3505,-0.3491,-0.3471,-0.3437,-0.3419,-0.3396,-0.3367,-0.3348,-0.332,-0.3302,-0.3264,-0.3242,-0.3218,-0.3196,-0.3188,-0.3175,-0.3169,-0.3177,-0.3179,-0.3167,-0.3167,-0.3155,-0.3155,-0.3155,-0.3155,0,-0.3592,-0.356,-0.3532,-0.3489,-0.3478,-0.3465,-0.3428,-0.3413,-0.3389,-0.3364,-0.3357,-0.3319,-0.3291,-0.3259,-0.3221,-0.3206,-0.3185,-0.3176,-0.3196,-0.3192,-0.3192,-0.3193,-0.3196,-0.3195,-0.3175,-0.3175,-0.3175,0,-0.3596,-0.3582,-0.3538,-0.3523,-0.3503,-0.3479,-0.3461,-0.3428,-0.341,-0.3372,-0.3362,-0.3333,-0.3307,-0.3265,-0.3234,-0.3205,-0.3195,-0.3198,-0.319,-0.32,-0.3195,-0.3197,-0.3195,-0.32,-0.3201,-0.3201,-0.3201,0,-0.3608,-0.3594,-0.3568,-0.3538,-0.3517,-0.3491,-0.3464,-0.3454,-0.3415,-0.3397,-0.3368,-0.3349,-0.331,-0.3282,-0.3249,-0.3228,-0.3208,-0.3204,-0.3202,-0.3211,-0.3223,-0.3217,-0.3202,-0.3204,-0.3204,-0.3204,-0.3203,-0.3203,-0.3622,-0.3609,-0.3575,-0.3548,-0.3525,-0.35,-0.3484,-0.3458,-0.3434,-0.34,-0.3382,-0.3354,-0.3322,-0.3276,-0.3256,-0.3234,-0.3227,-0.3224,-0.3223,-0.3223,-0.3226,-0.3227,-0.3228,-0.3227,-0.3227,-0.3227,-0.3227,0,-0.3633,-0.361,-0.3586,-0.3549,-0.3528,-0.3512,-0.3481,-0.3465,-0.3441,-0.3413,-0.3388,-0.3356,-0.3328,-0.3295,-0.3265,-0.3254,-0.3244,-0.3247,-0.3248,-0.3243,-0.3233,-0.3238,-0.3256,-0.3256,-0.3256,-0.3256,-0.3256,-0.3256,-0.3637,-0.3613,-0.3594,-0.3559,-0.3536,-0.3508,-0.3492,-0.347,-0.3447,-0.3413,-0.3389,-0.3368,-0.3338,-0.3306,-0.3279,-0.327,-0.3261,-0.3267,-0.3255,-0.3246,-0.3244,-0.3242,-0.3246,-0.3265,-0.3265,-0.3267,-0.3267,-0.3267]},{"header":{"parameterUnit":"m.s-1","parameterCategory":1,"la1":30.2991,"la2":30.254,"lo1":-89.0895,"lo2":-89.0444,"dy":0.0017,"dx":0.0017,"nx":28,"ny":28,"refTime":"2023-07-19T21:00:00:Z","depth":0,"parameterNumber":3,"parameterNumberName":"V-component_of_WINDS"},"data":[0,0,0,0,0,0,0,0,0,0,0,0,0,0,0,0,0,0,0,0,0,0,0,0,0,0,0,0,0,0,0,0,0,0,0,0,0,0,0,0,0,0,0,0,0,0,0,0,0,0,0,0,0,0,0,0,0,0,5.6379,5.6378,0,5.6314,5.6314,5.6313,5.621,5.6209,5.6207,5.6205,5.6139,5.6139,5.6139,0,0,0,0,0,0,0,0,0,0,0,0,0,5.6413,5.6413,5.6379,5.6378,5.6377,5.6315,5.6314,5.6313,5.6211,5.6209,5.6206,5.6204,5.6139,5.6139,5.6139,0,0,0,0,0,0,0,0,0,0,0,0,0,5.6379,5.6413,5.6379,5.6319,5.6313,5.6315,5.6314,5.6313,5.6211,5.6208,5.6206,5.6203,5.6139,5.6139,5.6139,5.6195,0,0,5.6139,5.6139,0,0,0,0,0,0,0,0,5.6381,5.6378,5.6328,5.6323,5.6316,5.6268,5.6302,5.6273,5.6212,5.625,5.6205,5.6202,5.6184,5.618,5.6174,5.6192,5.6189,5.6139,5.6139,5.6139,5.6139,0,0,0,0,0,0,0,5.6383,5.638,5.6353,5.6328,5.632,5.6295,5.6287,5.6296,5.6233,5.6246,5.6239,5.6232,5.618,5.6175,5.6172,5.6188,5.6139,5.6139,5.6139,5.6139,5.6248,5.6251,0,0,0,0,0,0,5.6395,5.6382,5.6355,5.6351,5.6342,5.6297,5.6288,5.6286,5.6233,5.6222,5.6235,5.6228,5.6176,5.6172,5.6169,5.6231,5.6139,5.6139,5.6139,5.6246,5.6249,5.6252,0,0,0,0,0,0,5.6396,5.6393,5.6358,5.6365,5.6358,5.6299,5.6298,5.6286,5.628,5.6224,5.6213,5.6241,5.6174,5.6169,5.6189,5.6227,5.6139,5.6139,5.6242,5.6247,5.6251,5.6356,0,0,0,0,0,0,5.6397,5.6394,5.6414,5.6366,5.6358,5.6379,5.63,5.6287,5.6281,5.6271,5.6227,5.6217,5.6171,5.619,5.6189,5.6226,5.6139,5.6238,5.6244,5.6249,5.6349,5.6363,5.6376,0,0,0,0,0,5.6399,5.6446,5.6416,5.6413,5.6383,5.6382,5.6377,5.6324,5.6284,5.6304,5.6268,5.6218,5.6224,5.6193,5.6191,5.6228,5.6236,5.6243,5.6249,5.6342,5.636,5.6375,0,0,0,0,0,0,5.6501,5.6439,5.6404,5.6438,5.6416,5.6364,5.6388,5.6344,5.6333,5.6324,5.6258,5.6249,5.6278,5.6255,5.6222,5.628,5.6222,5.6229,5.6294,5.631,5.6323,5.6328,5.6139,0,0,0,0,0,5.6527,5.6531,5.6477,5.6512,5.6503,5.6448,5.6445,5.6406,5.638,5.637,5.6336,5.6313,5.631,5.6309,5.6302,5.6345,5.6334,5.637,5.6383,5.6395,5.6401,5.6423,5.6438,5.6274,5.6274,5.6274,0,0,5.6581,5.6548,5.6555,5.6531,5.651,5.6516,5.644,5.645,5.6453,5.6372,5.6388,5.6363,5.6333,5.6365,5.6377,5.6347,5.6444,5.6403,5.6413,5.6413,5.6431,5.6446,5.646,5.6278,5.6278,5.6277,0,0,5.6683,5.6659,5.6685,5.6665,5.6634,5.6597,5.6604,5.6559,5.6539,5.6555,5.6494,5.6498,5.6493,5.6474,5.6464,5.6561,5.6515,5.6561,5.6632,5.6653,5.6666,5.6677,5.6712,5.6725,5.6568,5.6568,5.6568,0,5.6755,5.6761,5.6704,5.6718,5.6709,5.6637,5.6663,5.6646,5.6615,5.6611,5.6577,5.657,5.6545,5.6572,5.6596,5.659,5.6596,5.6565,5.6669,5.668,5.6689,5.6721,5.6735,5.6574,5.6573,5.6573,5.6572,0,5.6851,5.6857,5.6882,5.6853,5.6848,5.6868,5.6814,5.6816,5.6778,5.6745,5.6763,5.673,5.6716,5.672,5.6683,5.6742,5.6724,5.6681,5.6621,5.6712,5.6741,5.6753,5.6582,5.658,5.6578,5.6577,0,0,5.7014,5.6954,5.6965,5.6951,5.6911,5.6915,5.6932,5.6919,5.6921,5.6902,5.6915,5.6914,5.6874,5.6863,5.6823,5.6842,5.6922,5.6796,5.6795,5.6821,5.6985,5.7018,5.7033,5.6891,5.6893,5.6895,5.6988,0,5.7108,5.7133,5.7083,5.7121,5.7125,5.7057,5.7072,5.705,5.702,5.702,5.6987,5.6987,5.6934,5.6927,5.6943,5.6909,5.6954,5.6901,5.6902,5.6903,5.6911,5.7048,5.7082,5.7171,5.6999,5.7,5.7002,0,5.722,5.7207,5.7245,5.7204,5.7204,5.7219,5.7203,5.7204,5.7177,5.7154,5.7143,5.7097,5.7111,5.7055,5.7073,5.7039,5.7037,5.702,5.7022,5.702,5.6957,5.7049,5.7198,5.7212,5.7019,5.7018,5.7017,0,5.7335,5.7327,5.7349,5.734,5.7292,5.7304,5.7285,5.7256,5.7251,5.7238,5.7235,5.7223,5.7217,5.7209,5.7161,5.7125,5.7186,5.7126,5.7168,5.7169,5.7183,5.7183,5.7334,5.7183,5.7182,5.7182,5.7182,0,5.7444,5.747,5.74,5.7414,5.7441,5.7384,5.7413,5.7387,5.7362,5.7369,5.731,5.7318,5.7255,5.7256,5.7219,5.7241,5.7238,5.722,5.721,5.7225,5.7228,5.7222,5.7215,5.7186,5.7185,5.7184,5.7184,0,5.7577,5.7531,5.755,5.7504,5.7493,5.7516,5.7477,5.7488,5.7455,5.7465,5.7464,5.7413,5.7412,5.7363,5.7352,5.7327,5.7364,5.7343,5.7373,5.7366,5.7411,5.7408,5.7563,5.7581,5.742,5.7421,5.7423,0,5.7649,5.7668,5.7624,5.7625,5.7609,5.7611,5.7607,5.7551,5.7549,5.7521,5.7536,5.753,5.7523,5.7525,5.7486,5.7477,5.7455,5.751,5.7453,5.7468,5.7456,5.7455,5.7457,5.7522,5.7524,5.7526,5.7527,0,5.7783,5.7759,5.7755,5.7743,5.774,5.7728,5.7712,5.7717,5.7656,5.7657,5.7655,5.765,5.7639,5.7634,5.7619,5.7599,5.7554,5.7546,5.7555,5.7571,5.7588,5.7579,5.7406,5.7542,5.7541,5.754,5.7539,5.7538,5.7887,5.79,5.7872,5.787,5.7852,5.784,5.7848,5.7816,5.7814,5.7801,5.7769,5.7773,5.7747,5.7722,5.7706,5.7709,5.7681,5.7694,5.7698,5.7702,5.7711,5.7588,5.7706,5.7705,5.7705,5.7705,5.7704,0,5.8017,5.7996,5.7994,5.7975,5.7973,5.7931,5.7912,5.7913,5.7918,5.7898,5.7892,5.7891,5.7886,5.7848,5.7839,5.7849,5.7828,5.7848,5.7847,5.7843,5.7736,5.7729,5.7865,5.7865,5.7865,5.7865,5.7865,5.7865,5.8085,5.8105,5.8079,5.8092,5.807,5.8074,5.8066,5.8055,5.8038,5.804,5.8036,5.8011,5.7984,5.7973,5.7967,5.7956,5.7956,5.7983,5.7966,5.7866,5.785,5.7836,5.7828,5.7984,5.7984,5.8072,5.8073,5.8074]}]]